Weather History for MMLT - September, 2012

Change the Weather History Date:

Saturday, September 15, 2012

  Actual Average Record
Temperature  
Mean Temperature 84 °F -  
Max Temperature 86 °F 91 °F 102 °F (2002)
Min Temperature 81 °F 82 °F 77 °F (2001)
Cooling Degree Days 18    
Growing Degree Days 34 (Base 50)    
Moisture  
Dew Point 74 °F    
Average Humidity 69    
Maximum Humidity 89    
Minimum Humidity 53    
Precipitation  
Precipitation 0.00 in - - ()
Sea Level Pressure  
Sea Level Pressure 29.94 in    
Wind  
Wind Speed 2 mph ()    
Max Wind Speed 14 mph    
Max Gust Speed -    
Visibility 9.5 miles    
Events Thunderstorm    
Averages and records for this station are not official NWS values.
T = Trace of Precipitation, MM = Missing Value Source: Averaged Metar Reports

Daily Weather History Graph

Daily Weather History Graph

Search for Another Location

Airport or City:

Trip Planner

Search our weather history database for the weather conditions in past years. The results will help you decide how hot, cold, wet, or windy it might be!

Date:

Astronomy

Sep. 15, 2012 Rise Set
Actual Time 7:11 AM MDT 7:28 PM MDT
Civil Twilight 6:48 AM MDT 7:52 PM MDT
Nautical Twilight 6:21 AM MDT 8:18 PM MDT
Astronomical Twilight 5:54 AM MDT 8:46 PM MDT
Moon 6:43 AM MDT (9/15) 7:07 PM MDT (9/15)
Length of Visible Light 13h 03m
Length of Day
12h 17m
Waning Crescent, 0% of the Moon is Illuminated
Sep 15
Waning Crescent
Sep 15
New
Sep 22
First Quarter
Sep 29
Full
Oct 8
Last Quarter

Hourly Weather History & Observations

Time (MDT) Temp. Heat Index Dew Point Humidity Pressure Visibility Wind Dir Wind Speed Gust Speed Precip Events Conditions
2:30 AM 84 °F - 71 °F 56% 29.91 in 12 mi WSW 2.2 mph - -   Partly Cloudy
5:50 AM 82 °F - 71 °F 61% 29.90 in 12 mi East 2.2 mph - -   Partly Cloudy
7:10 AM 84.2 °F 92.3 °F 75.2 °F 74% 29.94 in 8.0 mi Calm Calm - N/A   Mostly Cloudy
7:42 AM 84.2 °F 92.3 °F 75.2 °F 74% 29.93 in 8.0 mi Calm Calm - N/A   Mostly Cloudy
8:40 AM 86.0 °F 95.1 °F 75.2 °F 70% 29.94 in 8.0 mi Calm Calm - N/A   Mostly Cloudy
8:50 AM 84 °F - 72 °F 61% 29.95 in 12 mi NW 2.2 mph - -   Overcast
9:46 AM 89.6 °F 102.2 °F 77.0 °F 66% 29.97 in 8.0 mi NW 6.9 mph - N/A   Mostly Cloudy
10:40 AM 84.2 °F 94.1 °F 77.0 °F 79% 29.97 in 8.0 mi NE 13.8 mph - N/A   Overcast
11:42 AM 80.6 °F 87.1 °F 77.0 °F 89% 30.01 in 8.0 mi WNW 9.2 mph - N/A   Overcast
11:45 AM 82 °F - 75 °F 73% 29.99 in 12 mi WSW 4.5 mph - - Thunderstorm Thunderstorm
12:42 PM 82.4 °F 90.9 °F 77.0 °F 84% 29.97 in 8.0 mi Calm Calm - N/A   Overcast
1:40 PM 84.2 °F 90.9 °F 73.4 °F 70% 29.97 in 8.0 mi Calm Calm - N/A   Overcast
2:40 PM 82.4 °F 89.5 °F 75.2 °F 79% 29.95 in 8.0 mi Calm Calm - N/A   Overcast
2:45 PM 86 °F - 72 °F 55% 29.96 in 12 mi SSW 4.5 mph - -   Partly Cloudy
3:41 PM 82.4 °F 89.5 °F 75.2 °F 79% 29.91 in 8.0 mi Calm Calm - N/A   Mostly Cloudy
4:41 PM 86.0 °F 91.8 °F 71.6 °F 62% 29.91 in 8.0 mi ESE 6.9 mph - N/A   Mostly Cloudy
5:40 PM 82.4 °F 87.2 °F 71.6 °F 70% 29.91 in 8.0 mi Calm Calm - N/A   Mostly Cloudy
5:50 PM 85 °F - 70 °F 53% 29.92 in 12 mi SSE 4.5 mph - -   Overcast
6:40 PM 82.4 °F 86.3 °F 69.8 °F 66% 29.92 in 8.0 mi Calm Calm - N/A   Mostly Cloudy
8:50 PM 83 °F - 72 °F 63% 29.94 in 12 mi Calm Calm - -   Overcast
11:31 PM 83 °F - 73 °F 66% 29.96 in 12 mi Calm Calm - -   Overcast